This is the latest recevied weather packets stored in our database for station/object AJ7DN. If no packets are shown the sender has not sent any weather packets the latest 1 day(s).
| Time | Temp. | Humidity | Pressure | Rain* | Wind** | Luminosity | Snow |
|---|---|---|---|---|---|---|---|
| 1778041291 | 14.44° C | 86% | 1020.7 hPa | 0 mm | 0 m/s | 0 W/m² | - |
| 1778040990 | 15° C | 86% | 1020.7 hPa | 0 mm | 0 m/s | 0 W/m² | - |
| 1778040686 | 15° C | 86% | 1020.3 hPa | 0 mm | 0 m/s | 0 W/m² | - |
| 1778040384 | 15° C | 85% | 1020.5 hPa | 0 mm | 0 m/s | 0 W/m² | - |
| 1778040080 | 15.56° C | 84% | 1020.5 hPa | 0 mm | 0 m/s | 0 W/m² | - |
| 1778039777 | 15.56° C | 83% | 1020.2 hPa | 0 mm | 0 m/s | 0 W/m² | - |
| 1778039473 | 15.56° C | 82% | 1020 hPa | 0 mm | 0 m/s | 0 W/m² | - |
| 1778039171 | 16.11° C | 80% | 1020.1 hPa | 0 mm | 0 m/s | 0 W/m² | - |
| 1778038868 | 16.67° C | 79% | 1020.1 hPa | 0 mm | 0 m/s | 0 W/m² | - |
| 1778038565 | 16.67° C | 78% | 1020 hPa | 0 mm | 0 m/s | 0 W/m² | - |
| 1778038262 | 16.67° C | 77% | 1020.1 hPa | 0 mm | 0 m/s | 0 W/m² | - |
| 1778037959 | 16.67° C | 76% | 1020 hPa | 0 mm | 0 m/s | 0 W/m² | - |
| 1778037656 | 16.67° C | 76% | 1020.1 hPa | 0 mm | 0 m/s | 0 W/m² | - |
| 1778037354 | 17.22° C | 75% | 1020.1 hPa | 0 mm | 0 m/s | 1 W/m² | - |
| 1778037050 | 17.22° C | 75% | 1019.8 hPa | 0 mm | 0 m/s | 4 W/m² | - |
| 1778036749 | 17.22° C | 74% | 1019.6 hPa | 0 mm | 0 m/s | 6 W/m² | - |
| 1778036445 | 17.78° C | 73% | 1019.8 hPa | 0 mm | 0 m/s | 8 W/m² | - |
| 1778036142 | 17.78° C | 73% | 1019.7 hPa | 0 mm | 0 m/s | 10 W/m² | - |
| 1778035838 | 17.78° C | 72% | 1019.6 hPa | 0 mm | 0 m/s | 12 W/m² | - |
| 1778035536 | 17.78° C | 71% | 1019.4 hPa | 0 mm | 0 m/s | 15 W/m² | - |
| 1778035232 | 17.78° C | 72% | 1019.5 hPa | 0 mm | 0 m/s | 17 W/m² | - |
| 1778034928 | 17.78° C | 71% | 1019.6 hPa | 0 mm | 0 m/s | 19 W/m² | - |
| 1778034635 | 18.33° C | 71% | 1019.5 hPa | 0 mm | 0 m/s | 20 W/m² | - |
| 1778034323 | 18.33° C | 71% | 1019.5 hPa | 0 mm | 0 m/s | 26 W/m² | - |
| 1778034020 | 17.78° C | 70% | 1019.8 hPa | 0 mm | 0 m/s | 31 W/m² | - |
* Rain latest hour (hover to see other rain measurements)
** Current wind speed in m/s (hover to see current wind gust speed)